Change the Weather History Date:

Tuesday, January 13, 2015

  Actual Average Record
Temperature  
Mean Temperature 25 °F 27 °F  
Max Temperature 31 °F 40 °F 69 °F (1928)
Min Temperature 18 °F 14 °F -16 °F (1916)
Degree Days  
Heating Degree Days 41    
Moisture  
Dew Point 12 °F    
Average Humidity 64    
Maximum Humidity 81    
Minimum Humidity 53    
Precipitation  
Precipitation T in 0.02 in 0.33 in (2001)
Month to date precipitation 0.01 0.23  
Year to date precipitation 0.01 0.23  
Sea Level Pressure  
Sea Level Pressure 30.47 in    
Wind  
Wind Speed 9 mph (South)    
Max Wind Speed 14 mph    
Max Gust Speed -    
Visibility 10 miles    
Events Snow    
T = Trace of Precipitation, MM = Missing Value Source: NWS Daily Summary

Daily Weather History Graph

Daily Weather History Graph

Search for Another Location

Airport or City:

Trip Planner

Search our weather history database for the weather conditions in past years. The results will help you decide how hot, cold, wet, or windy it might be!

Date:

Astronomy

Jan. 13, 2015 Rise Set
Actual Time 8:03 AM CST 5:38 PM CST
Civil Twilight 7:33 AM CST 6:08 PM CST
Nautical Twilight 7:00 AM CST 6:42 PM CST
Astronomical Twilight 6:27 AM CST 7:14 PM CST
Moon 12:59 AM CST (1/13) 12:20 PM CST (1/13)
Length of Visible Light 10h 35m
Length of Day
9h 35m
Waning Gibbous, 47% of the Moon is Illuminated
Jan 13
Waning Gibbous
Jan 20
New
Jan 26
First Quarter
Feb 3
Full
Feb 11
Last Quarter

Hourly Weather History & Observations

Time (CST) Temp. Windchill Dew Point Humidity Pressure Visibility Wind Dir Wind Speed Gust Speed Precip Events Conditions
12:53 AM 19.9 °F 10.1 °F 7.0 °F 57% 30.61 in 10.0 mi SE 8.1 mph - N/A   Overcast
1:53 AM 19.9 °F 11.1 °F 7.0 °F 57% 30.60 in 10.0 mi SSE 6.9 mph - N/A   Overcast
2:53 AM 19.9 °F 6.7 °F 6.1 °F 55% 30.59 in 9.0 mi SSE 13.8 mph - N/A   Overcast
3:53 AM 19.0 °F 6.1 °F 8.1 °F 62% 30.57 in 4.0 mi SSE 12.7 mph - 0.00 in Snow Light Snow
4:53 AM 18.0 °F 6.1 °F 9.0 °F 68% 30.55 in 9.0 mi SSE 10.4 mph - 0.00 in   Overcast
5:53 AM 19.0 °F 6.8 °F 10.0 °F 68% 30.53 in 10.0 mi SSE 11.5 mph - N/A   Overcast
6:53 AM 19.0 °F 6.1 °F 9.0 °F 65% 30.53 in 10.0 mi South 12.7 mph - N/A   Overcast
7:53 AM 19.0 °F 7.5 °F 9.0 °F 65% 30.53 in 10.0 mi South 10.4 mph - N/A   Overcast
8:53 AM 18.0 °F 6.9 °F 9.0 °F 68% 30.53 in 10.0 mi South 9.2 mph - N/A   Partly Cloudy
9:53 AM 19.9 °F 8.6 °F 10.0 °F 65% 30.53 in 10.0 mi South 10.4 mph - N/A   Partly Cloudy
10:53 AM 21.9 °F 11.0 °F 10.0 °F 60% 30.53 in 10.0 mi South 10.4 mph - N/A   Mostly Cloudy
11:16 AM 24.1 °F 12.0 °F 10.9 °F 57% 30.41 in 10.0 mi South 13.8 mph - N/A   Overcast
11:53 AM 25.0 °F 14.2 °F 10.9 °F 55% 30.51 in 10.0 mi South 11.5 mph - N/A   Overcast
12:53 PM 26.1 °F 16.2 °F 10.9 °F 53% 30.47 in 10.0 mi South 10.4 mph - N/A   Overcast
1:53 PM 28.0 °F 19.3 °F 12.9 °F 53% 30.44 in 10.0 mi SSW 9.2 mph - N/A   Mostly Cloudy
2:04 PM 28.9 °F 19.8 °F 14.0 °F 54% 30.33 in 10.0 mi SSW 10.4 mph - N/A   Scattered Clouds
2:53 PM 30.2 °F 23.4 °F 15.8 °F 55% 30.32 in 10.0 mi South 6.9 mph - N/A   Clear
3:53 PM 30.0 °F 24.1 °F 16.0 °F 56% 30.41 in 10.0 mi South 5.8 mph - N/A   Clear
4:53 PM 30.0 °F 24.1 °F 17.1 °F 59% 30.41 in 10.0 mi South 5.8 mph - N/A   Clear
5:53 PM 27.0 °F 20.5 °F 16.0 °F 63% 30.43 in 10.0 mi South 5.8 mph - N/A   Clear
6:53 PM 26.1 °F 21.9 °F 16.0 °F 66% 30.44 in 10.0 mi WSW 3.5 mph - N/A   Overcast
7:53 PM 25.0 °F 20.7 °F 16.0 °F 69% 30.45 in 10.0 mi ESE 3.5 mph - N/A   Clear
8:53 PM 21.9 °F 15.7 °F 12.9 °F 68% 30.46 in 10.0 mi SSE 4.6 mph - N/A   Clear
9:53 PM 19.9 °F 13.4 °F 12.9 °F 74% 30.46 in 10.0 mi South 4.6 mph - N/A   Clear
10:28 PM 21.9 °F - 15.1 °F 75% 30.34 in 10.0 mi Calm Calm - N/A   Overcast
10:42 PM 21.9 °F - 16.0 °F 78% 30.34 in 8.0 mi Calm Calm - N/A   Overcast
10:53 PM 21.9 °F 17.2 °F 16.0 °F 78% 30.45 in 8.0 mi WSW 3.5 mph - N/A   Overcast
11:53 PM 19.9 °F 12.1 °F 15.1 °F 81% 30.45 in 9.0 mi West 5.8 mph - N/A   Mostly Cloudy